Погода в Болоте

Россия / Тульская область     53°48′07″N   36°18′30″E
темп.,
°C
ветер,
м/с
пор.,
м/с
влажн.,
%
обл.,
%
осадки,
мм/ч
давл.,
гПа
погр.,
м
14 апреля, ср
ср1400:00+13ююв3865100 0.0 1020154
03:00+10ююв388810 0.0 1020153
06:00+9ююв369499 0.0 1020117
09:00+13ю35785 0.0 1020430
12:00+16ю466026 0.0 10181191
15:00+18ююв36475 0.2 10171971
18:00+17юв3343100 0.0 101660
21:00+13юв3652100 0.0 1016110
15 апреля, чт
чт1500:00+11юв2257100 0.0 101615
03:00+11в3458100 0.0 101567
06:00+10вюв3563100 0.0 101576
09:00+13юв2859100 0.0 10151032
12:00+15всв565498 0.1 1014875
15:00+16в7105096 0.1 10131183
18:00+11ю3782100 0.9 1014221
21:00+12вюв5117774 1.8 1014286
16 апреля, пт
пт1600:00+10вюв378480 0.3 1014126
03:00+8в3488100 0.3 101563
06:00+8всв3489100 0.0 101668
09:00+11всв4884100 0.3 1016334
12:00+9в3990100 2.8 1018418
15:00+15в6863100 3.6 10171395
18:00+11вюв61183100 2.7 1018430
21:00+10в3686100 3.3 101997
17 апреля, сб
сб1700:00+10всв51092100 0.1 1019335
03:00+8всв5109375 1.8 1020369
06:00+8всв5119393 0.4 1021425
09:00+9всв61187100 0.6 1021597
12:00+14всв8116871 0.0 10211023
15:00+15всв91162100 0.0 10211295
18:00+14всв8136334 0.0 10211110
21:00+11всв7156663 0.0 1022626
18 апреля, вс
вс1800:00+8всв6146432 0.0 1023492
03:00+6всв6136710 0.0 1024418
06:00+6всв51170100 0.0 1024403
09:00+7всв5107163 0.0 1025503
12:00+9всв7961100 0.0 1025752
15:00+11в695797 0.0 10261206
18:00+11в365997 0.0 1026323
21:00+7св386712 0.0 1026124